Temp
-11 -11 -11 -11 -11 -11 -11 -11 -11 -10 -10 -10 -10 -10 -10 -10 -10 -10 -10 -10 -10 -10 -11 -10 -11 -11 -11 -12 -12 -12 -12 -12 -12 -12 -12 -12 -12 -12 -12 -12 -12 -12 -12 -12 -11 -11 -11
-13 -13 -13 -13 -12 -12 -12 -11 -11 -11 -11 -11 -11 -11 -10 -10 -11 -10 -10 -10 -11 -11 -11 -11 -11 -12 -12 -13 -12 -12 -12 -13 -13 -13 -13 -13 -13 -12 -12 -12 -12 -12 -11 -11 -11 -11 -11
-13 -13 -13 -13 -13 -13 -13 -13 -12 -12 -12 -12 -12 -11 -11 -11 -11 -11 -11 -11 -11 -11 -11 -11 -11 -12 -13 -13 -13 -13 -13 -13 -13 -13 -13 -13 -13 -13 -12 -12 -12 -12 -11 -11 -12 -11 -11
-14 -14 -14 -14 -14 -13 -13 -13 -13 -13 -12 -13 -12 -12 -12 -12 -12 -12 -12 -12 -12 -12 -12 -12 -12 -12 -13 -13 -13 -13 -13 -13 -13 -13 -13 -13 -14 -13 -13 -13 -12 -12 -12 -12 -12 -12 -12
-14 -14 -14 -14 -14 -14 -14 -13 -13 -13 -13 -13 -13 -13 -13 -13 -13 -13 -12 -13 -13 -13 -13 -12 -13 -13 -13 -14 -13 -13 -13 -14 -14 -14 -14 -14 -13 -13 -13 -13 -12 -12 -12 -12 -12 -12 -12
-15 -14 -14 -14 -14 -14 -14 -14 -14 -14 -14 -14 -14 -13 -13 -13 -14 -14 -14 -14 -13 -14 -13 -13 -13 -13 -13 -14 -14 -14 -14 -14 -14 -14 -14 -14 -14 -13 -14 -14 -12 -12 -12 -12 -12 -13 -12
-15 -15 -15 -15 -15 -14 -15 -15 -15 -14 -14 -14 -14 -14 -14 -14 -14 -15 -15 -15 -15 -14 -13 -14 -13 -14 -14 -14 -13 -13 -14 -14 -14 -14 -14 -14 -14 -14 -14 -14 -13 -13 -12 -13 -13 -13 -12
-15 -15 -15 -15 -15 -15 -15 -15 -15 -15 -15 -15 -15 -15 -15 -14 -15 -16 -16 -16 -16 -15 -14 -14 -14 -14 -15 -14 -13 -14 -14 -14 -15 -14 -14 -14 -14 -14 -15 -14 -14 -14 -13 -13 -13 -14 -13
-16 -16 -15 -15 -15 -15 -15 -15 -15 -15 -15 -15 -16 -16 -16 -16 -15 -16 -17 -17 -17 -16 -15 -14 -15 -14 -15 -15 -14 -15 -14 -14 -14 -14 -15 -14 -14 -14 -14 -14 -14 -14 -14 -14 -13 -13 -14
-15 -16 -15 -15 -15 -16 -16 -16 -16 -16 -16 -16 -16 -17 -17 -17 -17 -17 -17 -17 -17 -17 -16 -13 -14 -14 -15 -16 -15 -15 -15 -15 -14 -15 -15 -14 -15 -15 -14 -14 -15 -14 -14 -14 -14 -14 -14
-18 -17 -17 -16 -16 -17 -17 -17 -17 -17 -17 -17 -17 -17 -17 -17 -17 -18 -18 -17 -18 -18 -16 -15 -13 -14 -15 -15 -16 -15 -15 -15 -15 -15 -15 -15 -15 -15 -15 -15 -15 -15 -15 -15 -15 -15 -14
-19 -20 -19 -19 -19 -20 -19 -19 -18 -18 -18 -19 -18 -18 -18 -17 -18 -18 -18 -18 -19 -18 -16 -16 -14 -15 -15 -16 -16 -16 -16 -15 -16 -16 -15 -15 -16 -15 -15 -15 -16 -16 -16 -16 -16 -15 -15
-22 -21 -21 -21 -20 -21 -21 -21 -20 -20 -19 -19 -19 -19 -19 -19 -19 -19 -19 -19 -19 -18 -16 -17 -16 -16 -16 -16 -16 -16 -16 -16 -16 -16 -16 -16 -16 -16 -16 -17 -16 -17 -17 -17 -17 -17 -17
-23 -22 -22 -22 -21 -21 -21 -22 -21 -21 -21 -21 -20 -20 -19 -19 -20 -20 -20 -20 -19 -16 -16 -18 -18 -17 -17 -17 -17 -16 -16 -16 -17 -17 -17 -17 -16 -17 -17 -18 -18 -17 -18 -18 -19 -18 -18
-24 -23 -23 -22 -22 -22 -22 -21 -21 -22 -22 -21 -21 -21 -21 -21 -21 -20 -20 -21 -18 -17 -17 -18 -20 -18 -17 -17 -17 -18 -17 -17 -17 -18 -18 -18 -17 -18 -18 -19 -19 -19 -19 -20 -20 -19 -19
-25 -25 -24 -23 -23 -22 -22 -22 -22 -21 -21 -21 -21 -21 -21 -21 -21 -21 -23 -21 -18 -18 -19 -18 -19 -20 -18 -18 -18 -19 -19 -18 -18 -18 -19 -18 -18 -19 -19 -19 -20 -20 -20 -20 -20 -20 -20
-27 -26 -26 -25 -24 -24 -23 -22 -22 -22 -22 -22 -21 -21 -21 -21 -22 -23 -22 -21 -19 -19 -20 -20 -19 -20 -20 -20 -20 -20 -20 -20 -19 -19 -20 -19 -20 -19 -20 -20 -21 -21 -21 -21 -21 -20 -20
-28 -28 -27 -26 -25 -25 -25 -24 -24 -23 -23 -22 -22 -22 -22 -23 -24 -23 -22 -21 -21 -20 -21 -21 -21 -20 -20 -21 -21 -21 -21 -21 -21 -20 -20 -21 -21 -21 -21 -21 -21 -21 -21 -21 -21 -21 -21
-30 -30 -28 -27 -26 -26 -25 -25 -25 -25 -25 -24 -24 -23 -24 -24 -24 -24 -24 -24 -23 -22 -22 -22 -21 -22 -22 -22 -22 -21 -21 -21 -21 -21 -21 -21 -21 -21 -21 -21 -21 -21 -20 -21 -21 -21 -21
-30 -30 -30 -29 -28 -26 -26 -26 -26 -25 -25 -25 -24 -24 -24 -24 -24 -24 -23 -23 -23 -23 -22 -22 -22 -23 -22 -22 -22 -22 -22 -22 -22 -21 -22 -22 -22 -22 -22 -22 -21 -21 -21 -21 -21 -21 -21
-31 -31 -31 -30 -28 -27 -27 -27 -26 -26 -26 -26 -25 -25 -24 -24 -23 -23 -24 -24 -23 -23 -23 -23 -23 -23 -23 -23 -23 -23 -22 -22 -22 -22 -22 -22 -23 -22 -22 -22 -21 -21 -21 -21 -21 -22 -22
-31 -31 -31 -31 -29 -28 -27 -27 -27 -27 -27 -27 -27 -26 -25 -24 -24 -24 -24 -24 -24 -24 -24 -24 -23 -23 -24 -24 -23 -24 -24 -23 -22 -23 -23 -23 -23 -23 -23 -22 -22 -22 -22 -22 -22 -22 -22
-32 -32 -32 -32 -29 -29 -29 -28 -27 -27 -27 -27 -27 -27 -26 -25 -25 -25 -25 -25 -25 -26 -25 -24 -24 -25 -25 -24 -24 -24 -24 -23 -23 -23 -23 -23 -23 -23 -22 -23 -23 -23 -22 -22 -22 -22 -22
-32 -32 -32 -32 -30 -30 -29 -29 -28 -28 -28 -27 -27 -27 -27 -27 -26 -26 -26 -26 -26 -27 -26 -26 -26 -25 -24 -25 -24 -23 -24 -24 -24 -24 -23 -23 -23 -23 -23 -23 -23 -22 -22 -23 -22 -22 -22
-33 -33 -33 -33 -31 -31 -30 -29 -29 -29 -28 -28 -28 -28 -27 -26 -27 -27 -27 -27 -27 -26 -26 -26 -26 -26 -25 -25 -25 -24 -24 -24 -24 -24 -24 -24 -24 -24 -24 -23 -23 -22 -22 -22 -23 -22 -22
-33 -33 -33 -33 -33 -32 -31 -30 -29 -29 -29 -28 -28 -28 -28 -28 -29 -28 -28 -27 -27 -27 -26 -26 -27 -26 -26 -26 -26 -25 -25 -25 -25 -25 -25 -24 -24 -24 -24 -23 -23 -22 -23 -23 -23 -22 -23
-33 -33 -33 -33 -32 -31 -31 -30 -29 -29 -29 -28 -28 -29 -29 -29 -29 -28 -28 -27 -27 -27 -26 -26 -26 -26 -26 -25 -25 -25 -25 -25 -25 -24 -25 -25 -25 -24 -25 -24 -23 -23 -23 -23 -23 -23 -23
-33 -33 -32 -32 -31 -31 -31 -30 -29 -29 -29 -28 -29 -29 -29 -29 -29 -28 -28 -28 -27 -27 -26 -27 -27 -26 -26 -26 -25 -25 -25 -25 -25 -25 -25 -25 -25 -25 -25 -24 -24 -24 -24 -24 -24 -23 -23
-33 -32 -32 -32 -31 -31 -31 -30 -30 -30 -29 -29 -29 -29 -29 -29 -29 -28 -28 -28 -27 -27 -27 -27 -27 -26 -26 -26 -25 -25 -25 -25 -25 -25 -25 -25 -25 -25 -25 -24 -24 -24 -24 -24 -24 -23 -23
Height
5732 5735 5736 5739 5741 5744 5746 5748 5751 5753 5755 5757 5759 5762 5764 5765 5766 5768 5770 5772 5773 5775 5776 5778 5780 5780 5781 5784 5778 5782 5783 5783 5782 5783 5783 5784 5784 5784 5786 5787 5785 5783 5785 5784 5784 5788 5787
5720 5721 5723 5726 5729 5731 5734 5736 5739 5741 5743 5745 5748 5750 5752 5755 5755 5757 5759 5761 5763 5764 5766 5769 5771 5771 5773 5777 5772 5774 5776 5777 5775 5774 5774 5776 5775 5775 5776 5778 5778 5777 5775 5776 5776 5776 5775
5704 5706 5710 5713 5716 5718 5722 5724 5726 5730 5731 5733 5736 5739 5741 5743 5745 5746 5748 5750 5752 5753 5756 5759 5759 5761 5765 5765 5765 5765 5767 5768 5766 5766 5766 5766 5767 5767 5765 5768 5767 5766 5766 5765 5766 5765 5765
5688 5690 5693 5697 5701 5703 5707 5710 5713 5715 5718 5719 5722 5725 5728 5730 5732 5734 5736 5739 5740 5741 5744 5747 5748 5751 5754 5753 5755 5755 5756 5758 5759 5758 5757 5756 5757 5756 5756 5756 5755 5754 5753 5753 5754 5754 5756
5670 5674 5678 5681 5685 5688 5692 5694 5697 5700 5703 5704 5708 5710 5714 5716 5718 5720 5723 5724 5726 5729 5731 5735 5737 5739 5743 5744 5746 5747 5748 5748 5749 5749 5748 5746 5746 5745 5746 5746 5744 5744 5740 5740 5740 5741 5745
5655 5658 5662 5666 5670 5673 5677 5680 5683 5685 5688 5691 5694 5696 5699 5703 5706 5708 5709 5711 5714 5717 5720 5724 5726 5730 5730 5733 5734 5735 5737 5738 5738 5738 5738 5738 5734 5734 5738 5734 5732 5732 5732 5730 5728 5730 5730
5637 5641 5645 5649 5653 5658 5662 5665 5670 5672 5675 5677 5681 5684 5686 5690 5693 5695 5697 5700 5704 5707 5710 5713 5716 5718 5717 5719 5721 5724 5725 5726 5726 5726 5725 5724 5724 5726 5724 5723 5723 5723 5724 5720 5718 5715 5718
5617 5622 5628 5632 5637 5642 5646 5651 5654 5659 5661 5663 5668 5670 5674 5677 5681 5683 5687 5689 5692 5695 5699 5702 5703 5707 5707 5707 5708 5710 5713 5716 5715 5715 5714 5714 5712 5712 5713 5712 5712 5712 5712 5712 5707 5704 5704
5597 5603 5608 5613 5618 5624 5629 5634 5639 5643 5647 5651 5654 5657 5661 5665 5670 5673 5675 5676 5680 5683 5686 5694 5693 5695 5698 5695 5697 5701 5699 5700 5703 5703 5703 5701 5700 5701 5703 5701 5700 5701 5700 5700 5699 5692 5692
5573 5579 5586 5593 5599 5605 5611 5616 5622 5627 5633 5636 5640 5644 5649 5653 5659 5660 5661 5664 5669 5672 5673 5681 5683 5684 5687 5687 5689 5690 5690 5691 5691 5692 5690 5690 5694 5692 5691 5690 5689 5689 5687 5685 5685 5683 5682
5550 5558 5564 5571 5578 5584 5591 5598 5605 5610 5617 5620 5624 5629 5636 5641 5646 5647 5649 5652 5656 5660 5663 5669 5669 5671 5675 5677 5679 5681 5681 5680 5679 5678 5680 5681 5680 5681 5681 5681 5677 5678 5675 5673 5672 5670 5667
5528 5537 5543 5551 5558 5565 5572 5580 5587 5594 5601 5604 5608 5614 5622 5627 5634 5630 5635 5637 5642 5649 5652 5653 5656 5659 5662 5663 5665 5667 5669 5670 5669 5668 5669 5671 5669 5667 5666 5666 5666 5666 5663 5660 5659 5658 5657
5509 5516 5525 5533 5540 5547 5555 5563 5570 5578 5585 5588 5592 5598 5608 5611 5618 5613 5618 5621 5625 5634 5646 5642 5646 5648 5650 5651 5652 5653 5653 5656 5658 5659 5661 5660 5660 5659 5656 5654 5653 5652 5650 5646 5648 5648 5647
5486 5496 5506 5515 5523 5530 5538 5545 5553 5560 5567 5571 5576 5583 5591 5597 5597 5596 5600 5599 5606 5629 5633 5629 5631 5636 5641 5641 5639 5638 5639 5644 5646 5648 5647 5648 5651 5649 5649 5645 5644 5644 5642 5639 5635 5635 5637
5464 5473 5484 5497 5505 5514 5520 5529 5536 5542 5549 5555 5559 5567 5576 5582 5582 5582 5579 5576 5602 5617 5619 5618 5616 5621 5627 5630 5627 5624 5627 5631 5634 5636 5636 5637 5639 5638 5637 5635 5633 5634 5634 5633 5628 5626 5626
5444 5452 5463 5473 5484 5495 5503 5511 5518 5526 5532 5538 5545 5550 5560 5565 5564 5561 5557 5563 5592 5601 5601 5602 5603 5605 5613 5617 5614 5612 5614 5619 5623 5625 5624 5625 5625 5627 5627 5626 5624 5625 5625 5622 5621 5619 5617
5424 5433 5443 5454 5463 5473 5482 5492 5501 5508 5514 5522 5529 5535 5545 5547 5545 5542 5542 5557 5575 5584 5583 5584 5589 5591 5599 5605 5603 5603 5601 5606 5611 5614 5612 5613 5613 5617 5616 5617 5617 5615 5614 5615 5613 5612 5611
5403 5413 5423 5433 5444 5456 5466 5474 5480 5490 5495 5503 5509 5517 5527 5527 5525 5530 5534 5549 5561 5568 5568 5571 5575 5580 5584 5590 5592 5592 5595 5596 5598 5601 5602 5605 5604 5604 5606 5606 5605 5605 5605 5605 5604 5606 5604
5387 5396 5404 5413 5425 5436 5448 5457 5466 5474 5478 5486 5492 5503 5510 5511 5509 5519 5530 5534 5541 5553 5556 5559 5563 5568 5573 5576 5576 5581 5585 5589 5589 5591 5593 5596 5594 5593 5594 5598 5598 5595 5596 5598 5597 5596 5596
5373 5382 5389 5397 5406 5421 5432 5440 5448 5458 5466 5470 5478 5485 5490 5493 5502 5510 5517 5521 5527 5538 5542 5546 5552 5555 5559 5562 5565 5567 5573 5577 5579 5582 5584 5585 5583 5584 5584 5586 5586 5587 5588 5588 5588 5588 5590
5362 5368 5376 5383 5392 5405 5414 5423 5433 5442 5450 5454 5458 5465 5475 5479 5493 5500 5500 5508 5515 5523 5528 5532 5537 5542 5546 5549 5554 5555 5560 5563 5568 5571 5572 5574 5574 5574 5575 5576 5576 5578 5578 5580 5578 5582 5579
5347 5354 5361 5369 5380 5389 5400 5408 5418 5426 5434 5436 5443 5453 5462 5473 5479 5484 5484 5495 5502 5510 5512 5518 5522 5532 5534 5536 5543 5547 5549 5552 5556 5558 5561 5562 5562 5564 5564 5566 5566 5567 5568 5568 5571 5571 5571
5336 5344 5351 5357 5366 5376 5383 5393 5403 5411 5416 5423 5434 5442 5450 5459 5465 5468 5476 5486 5492 5494 5499 5506 5511 5514 5516 5528 5531 5534 5536 5540 5543 5546 5549 5550 5553 5554 5555 5556 5556 5555 5561 5561 5561 5562 5563
5326 5334 5341 5348 5354 5362 5371 5379 5388 5394 5404 5414 5425 5432 5438 5446 5451 5461 5467 5473 5480 5483 5488 5494 5496 5500 5512 5514 5520 5524 5521 5525 5531 5535 5538 5539 5542 5544 5545 5546 5544 5549 5550 5552 5553 5553 5555
5319 5325 5332 5337 5344 5352 5360 5368 5376 5384 5393 5404 5412 5418 5426 5435 5443 5449 5457 5464 5470 5473 5478 5484 5487 5492 5498 5502 5508 5513 5514 5517 5521 5525 5528 5531 5533 5535 5535 5536 5537 5540 5543 5544 5545 5546 5547
5310 5316 5322 5328 5334 5341 5349 5358 5367 5376 5385 5394 5403 5411 5418 5427 5435 5443 5449 5455 5461 5465 5469 5474 5478 5485 5489 5492 5496 5498 5503 5509 5513 5517 5520 5523 5524 5526 5527 5527 5528 5533 5535 5535 5536 5537 5541
5304 5309 5314 5319 5325 5333 5341 5350 5360 5369 5379 5388 5397 5404 5411 5419 5429 5437 5443 5450 5455 5458 5463 5467 5471 5477 5481 5486 5490 5493 5498 5502 5505 5510 5514 5515 5516 5518 5519 5518 5522 5526 5527 5527 5529 5537 5531
5299 5302 5306 5312 5319 5327 5336 5345 5354 5364 5373 5381 5391 5398 5408 5417 5425 5432 5439 5446 5450 5454 5459 5463 5466 5469 5475 5477 5483 5487 5492 5496 5499 5503 5505 5508 5509 5510 5511 5512 5517 5520 5520 5522 5525 5524 5526
5297 5301 5305 5311 5318 5325 5333 5341 5350 5358 5367 5376 5386 5395 5405 5414 5423 5428 5434 5440 5446 5450 5454 5455 5460 5465 5469 5473 5477 5483 5486 5491 5495 5495 5498 5499 5502 5504 5506 5510 5512 5513 5513 5516 5518 5519 5519
Wind_Speed
62 60 58 58 58 57 57 56 57 55 54 54 54 54 53 53 52 52 50 50 49 49 49 49 49 48 42 39 45 40 36 36 35 35 36 40 39 39 33 35 38 41 37 37 37 33 35
62 59 57 58 59 58 57 58 56 56 54 55 56 56 54 56 52 53 52 52 52 53 53 52 52 48 40 36 42 40 37 37 38 39 38 42 42 43 44 40 41 42 45 44 44 41 43
68 65 66 64 65 65 64 62 61 61 60 60 61 61 59 59 59 57 56 55 54 58 59 57 57 52 45 43 42 42 42 43 46 43 43 45 49 50 51 46 45 45 45 47 45 46 47
73 68 73 71 72 69 70 69 68 67 67 67 66 65 65 64 64 64 62 64 62 62 61 63 60 55 44 42 44 46 48 48 49 49 48 47 49 53 52 49 48 48 48 47 47 47 46
74 70 71 72 67 70 74 71 65 64 62 60 62 62 64 64 64 63 65 65 62 62 59 58 53 53 44 43 45 48 48 50 52 51 47 46 48 49 48 46 48 46 49 49 49 49 47
72 72 69 68 69 67 66 62 61 59 59 60 60 59 60 60 60 55 55 51 53 50 48 48 47 46 47 45 46 49 50 50 50 52 53 51 53 51 44 47 50 49 49 49 49 50 49
77 76 74 74 71 71 68 65 63 61 60 59 59 58 58 57 52 47 46 43 47 48 46 46 49 46 50 50 52 52 52 52 51 52 48 48 48 44 45 47 47 46 46 49 49 52 52
85 81 81 81 76 75 70 70 69 65 60 58 58 56 54 53 51 48 45 45 46 50 51 47 48 49 52 52 51 52 53 50 44 45 46 45 46 46 46 46 47 48 49 50 52 55 57
89 86 83 89 81 81 76 73 68 62 59 59 57 56 55 53 55 52 48 51 51 53 53 50 53 52 52 55 53 50 49 45 45 43 40 43 47 45 45 47 49 49 51 52 53 58 59
104 94 92 92 87 76 73 71 69 64 61 59 59 58 57 56 55 53 54 56 53 55 57 53 54 55 55 57 52 49 48 47 45 43 45 45 42 44 48 50 50 51 51 53 55 58 59
88 94 91 91 91 80 69 67 65 61 62 60 58 59 59 58 57 56 57 56 55 58 55 52 55 55 51 48 44 44 44 43 43 44 44 41 42 42 44 46 51 51 52 55 56 58 61
86 82 81 79 74 69 65 63 63 62 62 60 61 60 59 58 57 56 55 56 56 56 56 58 57 55 52 49 47 46 44 44 43 46 46 46 46 48 50 52 51 51 52 53 55 57 58
78 77 73 73 70 69 68 67 65 65 65 63 64 65 62 61 58 62 61 62 63 62 57 59 56 55 54 52 53 51 50 47 46 47 47 48 49 48 49 50 50 49 50 50 52 50 47
83 81 73 69 67 69 70 68 69 68 66 65 64 65 63 61 60 61 61 61 62 57 55 56 57 57 53 54 55 55 53 50 47 45 47 48 48 47 47 46 46 47 45 44 44 45 44
79 80 81 77 69 66 68 68 70 68 67 68 67 65 64 61 60 62 64 67 63 57 58 60 59 60 58 56 55 53 52 51 48 45 45 44 45 41 40 38 40 39 38 36 39 42 40
79 78 77 76 76 73 68 67 67 68 68 69 68 67 65 62 66 65 58 69 62 59 62 62 63 59 55 51 53 52 50 50 48 47 42 44 45 40 36 36 37 33 32 34 35 38 40
78 77 75 73 71 69 71 72 69 68 69 69 69 69 66 67 67 62 61 65 61 59 57 55 53 52 46 46 49 49 49 48 46 45 43 44 40 40 39 38 32 32 33 34 35 35 37
66 74 76 76 74 71 67 66 67 66 66 67 64 63 60 59 61 60 60 58 52 51 54 53 50 52 50 44 44 45 44 42 44 46 44 37 36 36 36 35 39 38 37 33 35 33 33
60 68 71 75 74 73 70 69 67 66 65 64 64 62 61 61 64 63 60 58 56 52 54 53 53 47 46 46 47 44 43 44 43 42 38 37 40 43 41 40 41 40 34 32 33 36 31
61 53 56 69 73 71 69 69 68 67 66 67 67 66 66 67 64 61 59 60 59 54 54 54 51 51 52 51 50 48 44 42 46 43 40 40 44 45 42 41 40 38 33 38 32 35 37
51 54 55 56 67 67 68 68 67 65 65 65 67 67 65 64 63 60 59 58 56 55 55 54 55 54 50 49 48 45 45 47 44 42 45 46 43 48 45 42 43 40 31 40 32 33 38
49 53 46 48 58 62 66 65 63 64 62 64 63 64 64 62 60 61 60 56 54 52 53 53 53 48 44 46 42 43 45 47 48 47 41 46 49 50 43 40 42 41 45 38 35 37 39
44 41 44 40 45 54 55 59 60 63 62 62 61 59 59 59 56 57 57 52 45 42 43 44 44 45 46 42 41 44 50 51 50 47 44 45 46 45 44 39 38 41 35 36 36 40 40
42 43 46 38 43 46 48 50 54 56 57 55 59 56 53 51 52 51 48 42 37 32 34 35 40 43 39 38 33 30 43 44 52 46 49 47 47 42 42 37 39 38 37 38 36 39 41
47 43 42 36 41 42 42 44 46 47 48 48 48 50 48 46 42 40 36 36 35 33 35 38 40 33 39 43 40 34 38 38 39 41 42 42 42 38 38 38 38 38 36 39 41 42 40
48 47 43 37 34 38 40 40 41 41 39 40 39 40 39 34 29 29 32 34 36 34 31 30 38 35 29 45 49 45 40 40 41 37 36 34 30 33 36 37 37 33 30 32 34 35 29
40 39 38 37 35 36 38 39 38 37 38 38 37 36 36 34 37 36 35 29 24 22 23 21 34 41 29 28 38 47 43 37 36 38 33 30 30 30 29 33 30 26 26 30 32 26 30
12 19 25 28 30 32 34 35 36 36 36 36 35 35 34 34 35 39 38 32 30 22 22 22 28 42 41 33 37 29 35 35 33 31 33 31 30 29 30 29 22 19 26 29 25 25 24
16 16 19 21 25 28 30 31 32 32 33 32 30 32 39 32 33 37 34 31 30 20 21 22 28 29 37 33 34 23 25 22 25 29 32 34 30 27 27 21 21 22 24 21 19 21 23
Wind_Direction
259 258 257 258 258 258 258 258 259 259 261 262 263 263 263 263 265 266 265 266 266 268 270 272 275 276 273 278 277 273 256 254 255 259 266 269 268 270 272 274 275 278 278 280 281 280 278
256 257 260 260 260 259 257 258 260 261 261 262 264 263 264 264 262 263 264 265 267 268 272 273 273 271 271 273 269 265 259 257 259 262 263 267 272 273 272 274 278 279 279 279 280 280 277
259 255 257 260 260 261 261 262 263 264 264 265 267 267 265 265 266 267 266 266 267 269 270 272 271 270 269 260 259 255 254 259 263 266 270 271 272 276 276 280 281 280 275 274 274 272 275
259 260 257 258 259 260 261 263 264 264 265 266 265 264 265 265 264 265 266 267 267 267 268 268 270 270 268 257 251 255 259 262 265 272 273 276 275 278 275 278 280 278 279 275 267 268 270
257 258 259 255 255 257 261 260 260 265 266 266 264 265 266 265 269 263 267 261 264 266 267 267 267 268 263 258 254 257 264 268 269 270 276 280 276 277 276 274 274 274 275 274 274 273 270
256 257 254 255 252 256 257 260 262 264 268 267 264 263 263 264 265 262 260 259 259 262 263 266 266 268 266 265 261 261 263 269 271 272 276 276 276 274 274 271 270 270 271 273 274 274 274
252 251 253 256 257 260 260 262 263 265 268 265 263 262 260 260 259 260 262 261 260 258 260 262 267 263 263 264 264 266 270 272 277 275 277 269 272 273 268 266 267 269 270 273 275 276 274
250 250 252 251 253 255 260 261 262 264 266 262 260 258 259 259 258 258 261 260 258 262 262 265 266 267 265 267 270 272 271 276 272 274 272 273 269 267 269 270 268 269 269 271 273 275 275
248 248 250 251 251 254 257 258 258 262 260 259 256 256 256 254 255 254 258 259 257 259 262 263 265 266 263 267 271 278 275 274 277 275 273 267 267 270 269 268 269 272 272 272 272 274 276
249 251 245 247 249 252 253 253 255 258 255 253 254 253 253 253 255 254 254 256 257 263 265 266 265 264 264 269 272 271 275 276 275 274 269 267 273 272 271 271 273 271 274 274 273 275 277
251 253 254 251 253 256 254 249 248 249 250 249 249 250 251 252 252 253 254 256 256 261 263 264 265 267 270 271 271 270 271 269 271 269 271 273 271 270 269 271 272 275 278 278 279 278 279
250 251 251 253 248 249 249 244 244 245 245 246 247 247 248 249 251 251 251 253 252 256 260 262 265 267 272 274 273 272 272 268 269 269 270 273 274 275 276 277 278 279 279 279 279 281 283
247 249 249 249 246 242 241 240 241 243 243 244 246 247 245 247 248 251 251 252 254 256 262 263 263 264 267 274 276 274 270 268 269 271 272 271 273 276 277 278 279 280 281 282 281 283 284
251 247 245 245 246 245 241 241 240 240 241 242 245 248 248 249 250 252 253 254 253 255 256 261 265 266 268 270 272 270 268 269 270 272 273 274 276 276 276 276 276 276 276 279 284 283 285
243 247 250 244 242 242 244 244 242 239 240 243 240 243 245 246 249 250 252 253 254 258 259 263 264 265 265 267 266 266 266 267 268 271 273 275 273 273 273 272 271 272 273 275 275 278 279
242 242 242 244 245 241 239 240 240 243 244 243 242 241 243 246 248 249 246 253 257 258 262 262 262 262 262 261 260 262 265 266 268 271 272 271 271 270 268 267 269 276 273 274 278 275 274
238 240 240 239 239 239 243 240 238 238 238 239 241 243 244 245 245 244 244 254 257 256 255 256 259 261 257 258 259 262 266 268 268 269 270 270 269 270 268 265 266 267 266 270 273 271 273
236 237 237 236 236 237 236 237 241 243 243 241 242 242 242 244 246 243 247 255 254 251 256 260 257 259 263 261 258 256 257 262 265 265 265 268 270 265 266 265 265 272 275 268 269 271 273
234 235 238 236 235 234 234 235 235 236 239 244 244 244 242 241 242 248 252 255 257 256 257 258 258 258 258 256 254 252 253 255 255 255 258 260 259 260 261 262 268 274 272 259 265 258 268
237 235 236 238 236 234 234 234 234 236 237 238 240 239 239 240 243 245 247 249 249 249 250 252 251 250 249 251 250 255 255 253 247 247 255 254 258 261 256 265 272 269 258 273 259 264 275
231 235 231 235 239 235 234 234 234 234 235 238 239 239 238 242 242 244 247 248 249 248 248 247 247 248 251 249 247 250 250 249 246 253 256 249 253 257 256 266 267 262 264 259 252 275 274
230 235 225 234 241 235 234 234 236 235 236 239 240 240 241 242 244 246 247 247 249 250 248 246 246 246 241 245 250 248 246 246 253 253 246 252 250 257 264 264 259 258 255 271 267 275 275
224 223 221 220 231 237 234 232 234 236 236 239 241 243 244 244 246 247 248 251 251 246 247 248 245 237 240 245 242 244 245 245 244 247 253 247 251 256 263 257 253 255 260 269 266 271 274
223 226 221 223 230 232 232 232 230 232 234 236 241 243 244 244 245 246 248 247 241 233 235 228 229 231 233 225 225 242 238 244 244 246 245 250 258 263 262 255 253 249 251 254 260 263 270
223 227 218 223 231 227 224 226 228 228 229 231 231 233 236 236 236 239 235 239 234 227 234 231 228 222 220 222 218 238 236 239 236 242 247 252 254 255 255 254 254 250 256 258 261 264 264
223 225 220 217 220 221 219 219 219 221 222 223 222 224 227 222 214 218 217 218 221 243 244 238 230 216 221 232 233 235 233 239 237 246 253 252 248 248 251 252 252 252 257 256 256 255 258
224 227 226 226 222 218 214 211 210 211 212 213 214 215 212 210 199 214 212 212 217 237 221 234 216 214 216 220 239 246 249 251 250 247 246 248 248 248 250 255 250 254 249 248 251 260 257
229 220 213 210 207 205 204 204 204 205 207 209 210 207 202 197 211 213 218 223 224 227 224 237 226 219 220 229 225 229 240 240 242 239 247 254 253 248 248 250 247 242 244 250 251 250 254
203 193 187 188 189 191 194 196 198 201 200 202 199 194 190 199 216 220 226 225 202 213 226 216 217 215 226 229 218 226 230 227 242 249 248 249 249 250 244 244 234 248 253 246 243 248 257